Change the Weather History Date:

Monday, April 14, 2014

  Actual Average Record
Temperature  
Mean Temperature 58 °F -  
Max Temperature 73 °F 70 °F 86 °F (2006)
Min Temperature 44 °F 47 °F 25 °F (1957)
Degree Days  
Heating Degree Days 6    
Growing Degree Days 8 (Base 50)    
Moisture  
Dew Point 53 °F    
Average Humidity 69    
Maximum Humidity 100    
Minimum Humidity 39    
Precipitation  
Precipitation 0.27 in - - ()
Sea Level Pressure  
Sea Level Pressure 29.77 in    
Wind  
Wind Speed 14 mph (SW)    
Max Wind Speed 21 mph    
Max Gust Speed 33 mph    
Visibility 10 miles    
Events Rain    
Averages and records for this station are not official NWS values.
T = Trace of Precipitation, MM = Missing Value Source: NWS Daily Summary

Daily Weather History Graph

Daily Weather History Graph

Search for Another Location

Airport or City:

Trip Planner

Search our weather history database for the weather conditions in past years. The results will help you decide how hot, cold, wet, or windy it might be!

Date:

Astronomy

Apr. 14, 2014 Rise Set
Actual Time 6:10 AM CDT 7:17 PM CDT
Civil Twilight 5:44 AM CDT 7:44 PM CDT
Nautical Twilight 5:12 AM CDT 8:16 PM CDT
Astronomical Twilight 4:39 AM CDT 8:49 PM CDT
Moon 6:56 PM CDT (4/14) 5:41 AM CDT (4/14)
Length of Visible Light 14h 00m
Length of Day
13h 06m
Full, 100% of the Moon is Illuminated
Apr 14
Full
Apr 15
Full
Apr 22
Last Quarter
Apr 29
New
May 6
First Quarter

Hourly Weather History & Observations

Time (CDT) Temp. Windchill Dew Point Humidity Pressure Visibility Wind Dir Wind Speed Gust Speed Precip Events Conditions
12:15 AM 73.0 °F - 46.4 °F 39% 29.76 in 10.0 mi South 16.1 mph 20.7 mph N/A   Scattered Clouds
12:35 AM 73.0 °F - 47.1 °F 40% 29.76 in 10.0 mi South 17.3 mph 25.3 mph N/A   Clear
12:55 AM 73.0 °F - 47.8 °F 41% 29.76 in 10.0 mi South 18.4 mph 25.3 mph N/A   Scattered Clouds
1:15 AM 72.9 °F - 48.4 °F 42% 29.77 in 10.0 mi SSW 12.7 mph 25.3 mph N/A   Scattered Clouds
1:35 AM 73.0 °F - 49.3 °F 43% 29.76 in 10.0 mi South 15.0 mph 27.6 mph N/A   Mostly Cloudy
1:55 AM 72.9 °F - 50.4 °F 45% 29.77 in 10.0 mi SSW 12.7 mph 28.8 mph N/A Rain Light Rain
2:15 AM 72.0 °F - 51.6 °F 49% 29.78 in 10.0 mi SSW 18.4 mph 24.2 mph N/A Rain Light Rain
2:35 AM 72.3 °F - 51.6 °F 48% 29.78 in 10.0 mi SSW 17.3 mph 28.8 mph N/A   Overcast
3:15 AM 71.2 °F - 52.7 °F 52% 29.78 in 10.0 mi SW 16.1 mph 27.6 mph N/A Rain Light Rain
3:35 AM 68.0 °F - 54.5 °F 62% 29.76 in 10.0 mi SSW 16.1 mph 21.9 mph N/A   Overcast
3:55 AM 67.8 °F - 54.7 °F 63% 29.76 in 10.0 mi SSW 9.2 mph 21.9 mph N/A Rain Light Rain
4:15 AM 66.7 °F - 55.2 °F 66% 29.76 in 10.0 mi SSW 6.9 mph - N/A Rain Light Rain
4:35 AM 65.8 °F - 55.8 °F 70% 29.75 in 10.0 mi South 6.9 mph - N/A Rain Light Rain
4:55 AM 65.8 °F - 55.8 °F 70% 29.74 in 10.0 mi South 8.1 mph - N/A   Overcast
5:15 AM 66.9 °F - 55.0 °F 66% 29.75 in 10.0 mi SSW 12.7 mph 20.7 mph N/A   Overcast
5:35 AM 67.3 °F - 54.5 °F 63% 29.75 in 10.0 mi SSW 11.5 mph 26.5 mph N/A   Overcast
5:55 AM 66.6 °F - 54.9 °F 66% 29.75 in 10.0 mi SSW 10.4 mph 19.6 mph N/A Rain Rain
6:15 AM 64.2 °F - 55.9 °F 74% 29.76 in 10.0 mi SSW 12.7 mph 18.4 mph 0.01 in Rain Light Rain
6:35 AM 63.5 °F - 56.3 °F 77% 29.76 in 10.0 mi South 10.4 mph 17.3 mph 0.02 in Rain Rain
6:55 AM 63.3 °F - 55.6 °F 76% 29.76 in 10.0 mi South 17.3 mph 25.3 mph 0.03 in Rain Rain
7:15 AM 63.3 °F - 54.0 °F 71% 29.76 in 10.0 mi SSW 18.4 mph 32.2 mph N/A   Drizzle
7:35 AM 62.8 °F - 54.0 °F 73% 29.78 in 10.0 mi SSW 17.3 mph 28.8 mph N/A   Overcast
7:55 AM 62.6 °F - 53.8 °F 73% 29.78 in 10.0 mi SSW 13.8 mph 28.8 mph N/A   Overcast
8:15 AM 62.6 °F - 53.8 °F 73% 29.79 in 10.0 mi SSW 18.4 mph 26.5 mph N/A   Overcast
8:35 AM 62.8 °F - 53.8 °F 72% 29.80 in 10.0 mi SSW 17.3 mph 29.9 mph N/A   Overcast
8:55 AM 63.1 °F - 53.4 °F 71% 29.80 in 10.0 mi SSW 20.7 mph 33.4 mph N/A   Overcast
9:15 AM 63.3 °F - 52.7 °F 68% 29.80 in 10.0 mi SSW 19.6 mph 26.5 mph N/A   Overcast
9:35 AM 63.9 °F - 52.9 °F 67% 29.81 in 10.0 mi SSW 17.3 mph 28.8 mph N/A   Overcast
9:55 AM 65.1 °F - 52.9 °F 65% 29.81 in 10.0 mi SSW 16.1 mph 28.8 mph N/A   Overcast
10:15 AM 65.5 °F - 53.1 °F 64% 29.82 in 10.0 mi SW 16.1 mph 27.6 mph N/A   Overcast
10:35 AM 66.2 °F - 53.6 °F 64% 29.83 in 10.0 mi SW 18.4 mph 31.1 mph N/A   Overcast
10:55 AM 66.6 °F - 54.0 °F 64% 29.83 in 10.0 mi SW 20.7 mph 27.6 mph N/A   Overcast
11:15 AM 67.1 °F - 54.7 °F 64% 29.83 in 10.0 mi SSW 18.4 mph 25.3 mph N/A   Overcast
11:35 AM 67.6 °F - 54.7 °F 63% 29.82 in 10.0 mi SW 17.3 mph 25.3 mph N/A   Overcast
11:55 AM 67.3 °F - 54.9 °F 64% 29.82 in 10.0 mi SW 18.4 mph 27.6 mph N/A   Overcast
12:15 PM 68.2 °F - 55.4 °F 64% 29.81 in 10.0 mi SW 16.1 mph 25.3 mph N/A   Overcast
12:35 PM 68.0 °F - 55.6 °F 64% 29.81 in 10.0 mi SSW 15.0 mph 24.2 mph N/A   Overcast
12:55 PM 69.1 °F - 55.8 °F 62% 29.80 in 10.0 mi SSW 12.7 mph 23.0 mph N/A   Overcast
1:15 PM 68.9 °F - 55.6 °F 62% 29.80 in 10.0 mi SW 15.0 mph 24.2 mph N/A   Overcast
1:35 PM 70.2 °F - 55.8 °F 60% 29.79 in 10.0 mi SSW 18.4 mph 24.2 mph N/A   Overcast
1:55 PM 70.3 °F - 55.6 °F 59% 29.78 in 10.0 mi SW 17.3 mph 25.3 mph N/A   Mostly Cloudy
2:15 PM 70.7 °F - 55.8 °F 59% 29.77 in 10.0 mi SW 13.8 mph 19.6 mph N/A   Mostly Cloudy
2:35 PM 71.1 °F - 55.6 °F 58% 29.75 in 10.0 mi South 10.4 mph 20.7 mph N/A   Overcast
3:15 PM 70.2 °F - 55.4 °F 59% 29.74 in 10.0 mi SSW 9.2 mph 17.3 mph N/A   Overcast
3:35 PM 70.3 °F - 55.4 °F 59% 29.72 in 10.0 mi South 10.4 mph 17.3 mph N/A   Overcast
3:55 PM 70.9 °F - 55.4 °F 58% 29.72 in 10.0 mi South 12.7 mph 20.7 mph N/A   Scattered Clouds
4:15 PM 70.2 °F - 55.0 °F 59% 29.71 in 10.0 mi South 12.7 mph 20.7 mph N/A   Clear
4:35 PM 70.3 °F - 55.6 °F 59% 29.71 in 10.0 mi South 11.5 mph 17.3 mph N/A   Mostly Cloudy
4:55 PM 69.4 °F - 55.0 °F 60% 29.71 in 10.0 mi South 10.4 mph 18.4 mph N/A   Overcast
5:15 PM 68.9 °F - 54.9 °F 61% 29.71 in 10.0 mi SSW 11.5 mph 20.7 mph N/A   Overcast
5:35 PM 68.7 °F - 54.7 °F 61% 29.71 in 10.0 mi SSW 12.7 mph 19.6 mph N/A   Overcast
5:55 PM 68.4 °F - 54.9 °F 62% 29.71 in 10.0 mi SSW 11.5 mph 18.4 mph N/A   Overcast
6:15 PM 68.0 °F - 54.7 °F 62% 29.71 in 10.0 mi SSW 11.5 mph 17.3 mph N/A   Overcast
6:35 PM 67.5 °F - 54.5 °F 63% 29.70 in 10.0 mi South 11.5 mph 19.6 mph N/A   Overcast
6:55 PM 67.1 °F - 54.5 °F 64% 29.70 in 10.0 mi SW 11.5 mph 19.6 mph N/A   Overcast
7:15 PM 62.4 °F - 54.0 °F 74% 29.73 in 10.0 mi NW 10.4 mph 21.9 mph N/A Rain Light Rain
7:35 PM 56.1 °F - 54.0 °F 92% 29.75 in 10.0 mi NW 10.4 mph 25.3 mph N/A Rain Light Rain
7:55 PM 53.4 °F - 52.7 °F 97% 29.78 in 4.0 mi WNW 8.1 mph - 0.06 in Rain Heavy Rain
8:15 PM 52.0 °F - 52.0 °F 100% 29.78 in 7.0 mi NW 6.9 mph - 0.03 in Rain Rain
8:35 PM 51.1 °F - 51.1 °F 100% 29.78 in 7.0 mi NNW 8.1 mph - 0.07 in Rain Rain
8:55 PM 50.9 °F - 50.9 °F 100% 29.79 in 10.0 mi NW 4.6 mph - 0.10 in Rain Rain
9:15 PM 50.2 °F - 50.2 °F 100% 29.78 in 10.0 mi North 3.5 mph - 0.01 in Rain Light Rain
9:35 PM 50.0 °F - 50.0 °F 100% 29.82 in 10.0 mi WNW 8.1 mph - 0.03 in Rain Rain
9:55 PM 49.3 °F - 49.3 °F 100% 29.82 in 10.0 mi WNW 11.5 mph - 0.04 in Rain Light Rain
10:15 PM 48.4 °F - 48.4 °F 100% 29.81 in 10.0 mi NW 5.8 mph - 0.01 in Rain Light Rain
10:35 PM 47.1 °F - 46.9 °F 99% 29.83 in 10.0 mi WNW 9.2 mph - 0.01 in   Light Drizzle
10:55 PM 46.0 °F 41.4 °F 46.0 °F 100% 29.84 in 4.0 mi WNW 9.2 mph 17.3 mph 0.02 in Rain Light Rain
11:15 PM 45.0 °F 39.7 °F 45.0 °F 100% 29.84 in 4.0 mi NW 10.4 mph 17.3 mph 0.01 in Rain Heavy Rain
11:35 PM 44.4 °F 40.5 °F 44.4 °F 100% 29.85 in 5.0 mi WNW 6.9 mph - 0.02 in Rain Rain
11:55 PM 44.1 °F 39.0 °F 44.1 °F 100% 29.86 in 4.0 mi WNW 9.2 mph 17.3 mph 0.02 in   Drizzle